Location: Lewisville
(33.0462°N, 96.9942°W)
Time: 00:53:34
(UTC-05:00)

Envisat - Pass Details

Date: 11 January 2020
Orbit: 764 x 766 km, 98.1° (Epoch: 05 July)

Event Time Altitude Azimuth Distance (km) Brightness Sun altitude
Rises 18:25:04 0° 166° (SSE) 3,215 6.3 -9.5°
Reaches altitude 10° 18:27:22 10° 166° (SSE) 2,293 5.6 -10.0°
Maximum altitude 18:32:25 90° 110° (ESE) 770 3.0 -11.0°
Drops below altitude 10° 18:37:32 10° 348° (NNW) 2,308 5.4 -12.0°
Sets 18:39:50 0° 348° (NNW) 3,238 6.2 -12.4°
